Location: Grossmotten
(48.5500°N, 15.3833°E)
Time: 06:19:46
(UTC+00:00)

PAYLOAD B - Pass Details

Date: 15 November 2019
Orbit: 848 x 872 km, 99.1° (Epoch: 10 December)

Event Time Altitude Azimuth Distance (km) Brightness Sun altitude
Rises 04:23:24 0° 16° (NNE) 3,432 7.5 -16.9°
Reaches altitude 10° 04:25:48 10° 18° (NNE) 2,489 6.7 -16.5°
Maximum altitude 04:31:19 77° 105° (ESE) 875 4.4 -15.6°
Drops below altitude 10° 04:36:48 10° 191° (SSW) 2,468 6.6 -14.7°
Sets 04:39:10 0° 193° (SSW) 3,400 7.3 -14.3°
